User: anonymous
Location: Unspecified
(0.0000°N, 0.0000°E)
Time: 05:29:16
(UTC+02:00)
Language:

Cosmos 2082 Rocket - Orbit

View from above orbital plane
View from above orbital plane
View from above satellite
View from above satellite

Ground track
Ground track

The orbit data is extracted from the following two-line orbital elements,

1 20625U 90046B   14258.82643244  .00000246  00000-0  15280-3 0  8098
2 20625 070.9986 099.0779 0014729 202.9782 242.1043 14.14535785255663
Epoch (UTC): 15 September 2014 19:50:03
Eccentricity: 0.0014729
inclination: 70.9986°
perigee height: 833 km
apogee height: 854 km
right ascension of ascending node: 99.0779°
argument of perigee: 202.9782°
revolutions per day: 14.14535785
mean anomaly at epoch: 242.1043°
orbit number at epoch: 25566

The dashed part of the orbit path shows where the satellite is in the earth's shadow,  

DLR